Location: Recife
(8.0585°S, 34.8848°W)
Time: 07:21:24
(UTC-03:00)

Courier 1B Rocket - Pass Details

Date: 14 April 2026
Orbit: 920 x 1201 km, 28.2° (Epoch: 13 May)

Event Time Altitude Azimuth Distance (km) Brightness Sun altitude
Rises 17:13:22 0° 272° (W) 4,069 11.0 0.2°
Reaches altitude 10° 17:17:25 10° 291° (WNW) 3,071 9.5 -0.8°
Maximum altitude 17:22:05 17° 329° (NNW) 2,513 7.8 -1.9°
Drops below altitude 10° 17:26:37 10° 8° (N) 2,955 7.6 -3.0°
Sets 17:30:26 0° 27° (NNE) 3,852 7.9 -4.0°
